Weather History for Jefferson, GA

Change the Weather History Date:

Monday, November 5, 2012

  Actual Average (KGVL) Record (KGVL)
Temperature  
Mean Temperature 50 °F 56 °F  
Max Temperature 62 °F 66 °F 79 °F (1961)
Min Temperature 39 °F 46 °F 24 °F (1937)
Degree Days  
Heating Degree Days 14 9  
Month to date heating degree days 44  
Since 1 July heating degree days 202  
Moisture  
Dew Point 29 °F    
Average Humidity 45    
Maximum Humidity 81    
Minimum Humidity 16    
Precipitation  
Precipitation 0.00 in 0.12 in 4.12 in (1977)
Month to date precipitation 0.54  
Snow  
Snow - - - ()
Month to date snowfall  
Since 1 July snowfall  
Since 1 September snowfall  
Snow Depth -    
Sea Level Pressure  
Sea Level Pressure 30.02 in    
Wind  
Wind Speed 2 mph ()    
Max Wind Speed 7 mph    
Max Gust Speed -    
Visibility 10.0 miles    
Events      
T = Trace of Precipitation, MM = Missing Value Source: Averaged Metar Reports

Daily Weather History Graph

Daily Weather History Graph

Search for Another Location

Airport:

Trip Planner

Search our weather history database for the weather conditions in past years. The results will help you decide how hot, cold, wet, or windy it might be!

Date:

Astronomy

Nov. 05, 2012 Rise Set
Actual Time 6:58 AM EST 5:37 PM EST
Civil Twilight 6:31 AM EST 6:03 PM EST
Nautical Twilight 6:02 AM EST 6:33 PM EST
Astronomical Twilight 5:32 AM EST 7:02 PM EST
Moon 11:13 PM EST (11/5) 12:16 PM EST (11/5)
Length of Visible Light 11h 31m
Length of Day
10h 39m
Waning Gibbous, 63% of the Moon is Illuminated
Nov 5
Waning Gibbous
Nov 6
Last Quarter
Nov 13
New
Nov 20
First Quarter
Nov 28
Full

Hourly Weather History & Observations

Time (EST) Temp. Windchill Dew Point Humidity Pressure Visibility Wind Dir Wind Speed Gust Speed Precip Events Conditions
12:15 AM 46.4 °F 42.9 °F 32.0 °F 57% 30.00 in 10.0 mi WNW 6.9 mph - N/A   Clear
12:35 AM 46.4 °F 42.9 °F 32.0 °F 57% 30.00 in 10.0 mi NW 6.9 mph - N/A   Clear
12:55 AM 46.4 °F 44.3 °F 32.0 °F 57% 30.00 in 10.0 mi NW 4.6 mph - N/A   Clear
1:15 AM 46.4 °F 43.5 °F 32.0 °F 57% 30.00 in 10.0 mi NW 5.8 mph - N/A   Clear
1:35 AM 46.4 °F 42.9 °F 32.0 °F 57% 30.00 in 10.0 mi NW 6.9 mph - N/A   Clear
1:55 AM 44.6 °F 41.4 °F 32.0 °F 61% 30.01 in 10.0 mi NW 5.8 mph - N/A   Clear
2:15 AM 44.6 °F 43.1 °F 32.0 °F 61% 30.01 in 10.0 mi NW 3.5 mph - N/A   Clear
2:35 AM 44.6 °F 43.1 °F 32.0 °F 61% 30.02 in 10.0 mi NNW 3.5 mph - N/A   Clear
2:55 AM 44.6 °F 43.1 °F 32.0 °F 61% 30.02 in 10.0 mi NW 3.5 mph - N/A   Clear
3:15 AM 44.6 °F 42.2 °F 32.0 °F 61% 30.02 in 10.0 mi NNW 4.6 mph - N/A   Clear
3:35 AM 44.6 °F 42.2 °F 32.0 °F 61% 30.02 in 10.0 mi NW 4.6 mph - N/A   Clear
3:55 AM 44.6 °F 43.1 °F 32.0 °F 61% 30.02 in 10.0 mi NNW 3.5 mph - N/A   Clear
4:15 AM 42.8 °F 40.1 °F 32.0 °F 66% 30.03 in 10.0 mi NW 4.6 mph - N/A   Clear
4:35 AM 42.8 °F - 32.0 °F 66% 30.03 in 10.0 mi Calm Calm - N/A   Clear
4:55 AM 42.8 °F 41.1 °F 32.0 °F 66% 30.03 in 10.0 mi NNW 3.5 mph - N/A   Clear
5:15 AM 41.0 °F - 32.0 °F 70% 30.03 in 10.0 mi Calm Calm - N/A   Clear
5:35 AM 41.0 °F 39.0 °F 32.0 °F 70% 30.05 in 10.0 mi NNW 3.5 mph - N/A   Clear
5:55 AM 41.0 °F - 32.0 °F 70% 30.05 in 10.0 mi Calm Calm - N/A   Clear
6:15 AM 41.0 °F 39.0 °F 32.0 °F 70% 30.05 in 10.0 mi NNW 3.5 mph - N/A   Clear
6:35 AM 41.0 °F - 32.0 °F 70% 30.05 in 10.0 mi Calm Calm - N/A   Clear
7:15 AM 39.2 °F - 33.8 °F 81% 30.06 in 10.0 mi Calm Calm - N/A   Clear
7:35 AM 41.0 °F - 32.0 °F 70% 30.07 in 10.0 mi Calm Calm - N/A   Clear
7:55 AM 42.8 °F 41.1 °F 32.0 °F 66% 30.08 in 10.0 mi NW 3.5 mph - N/A   Clear
8:15 AM 42.8 °F 41.1 °F 32.0 °F 66% 30.08 in 10.0 mi NW 3.5 mph - N/A   Clear
8:35 AM 46.4 °F - 32.0 °F 57% 30.08 in 10.0 mi Calm Calm - N/A   Clear
8:55 AM 48.2 °F - 30.2 °F 50% 30.08 in 10.0 mi Calm Calm - N/A   Clear
9:15 AM 50.0 °F - 28.4 °F 43% 30.08 in 10.0 mi Calm Calm - N/A   Clear
9:35 AM 50.0 °F - 28.4 °F 43% 30.08 in 10.0 mi Calm Calm - N/A   Clear
9:55 AM 51.8 °F - 28.4 °F 41% 30.08 in 10.0 mi Calm Calm - N/A   Clear
10:15 AM 53.6 °F - 30.2 °F 41% 30.08 in 10.0 mi Calm Calm - N/A   Clear
10:35 AM 53.6 °F - 30.2 °F 41% 30.08 in 10.0 mi Calm Calm - N/A   Clear
10:55 AM 55.4 °F - 32.0 °F 41% 30.08 in 10.0 mi Calm Calm - N/A   Clear
11:15 AM 55.4 °F - 30.2 °F 38% 30.08 in 10.0 mi Calm Calm - N/A   Clear
11:35 AM 55.4 °F - 30.2 °F 38% 30.07 in 10.0 mi Calm Calm - N/A   Clear
11:55 AM 57.2 °F - 30.2 °F 36% 30.06 in 10.0 mi Calm Calm - N/A   Clear
12:15 PM 57.2 °F - 28.4 °F 33% 30.05 in 10.0 mi West 3.5 mph - N/A   Clear
12:35 PM 59.0 °F - 23.0 °F 25% 30.03 in 10.0 mi Calm Calm - N/A   Clear
12:55 PM 59.0 °F - 24.8 °F 27% 30.03 in 10.0 mi Calm Calm - N/A   Clear
1:15 PM 60.8 °F - 21.2 °F 22% 30.01 in 10.0 mi SSW 3.5 mph - N/A   Clear
1:35 PM 60.8 °F - 21.2 °F 22% 30.00 in 10.0 mi Calm Calm - N/A   Clear
1:55 PM 60.8 °F - 19.4 °F 20% 30.00 in 10.0 mi SW 4.6 mph - N/A   Clear
2:15 PM 60.8 °F - 17.6 °F 19% 29.99 in 10.0 mi Calm Calm - N/A   Clear
2:35 PM 62.6 °F - 19.4 °F 19% 29.98 in 10.0 mi Calm Calm - N/A   Clear
2:55 PM 62.6 °F - 17.6 °F 18% 29.98 in 10.0 mi Calm Calm - N/A   Clear
3:15 PM 60.8 °F - 14.0 °F 16% 29.98 in 10.0 mi Calm Calm - N/A   Clear
3:35 PM 62.6 °F - 17.6 °F 18% 29.98 in 10.0 mi Calm Calm - N/A   Clear
3:55 PM 60.8 °F - 17.6 °F 19% 29.98 in 10.0 mi Calm Calm - N/A   Clear
4:15 PM 60.8 °F - 17.6 °F 19% 29.98 in 10.0 mi Calm Calm - N/A   Clear
4:35 PM 60.8 °F - 19.4 °F 20% 29.98 in 10.0 mi Calm Calm - N/A   Clear
4:55 PM 59.0 °F - 24.8 °F 27% 29.97 in 10.0 mi Calm Calm - N/A   Clear
5:15 PM 59.0 °F - 26.6 °F 29% 29.97 in 10.0 mi Calm Calm - N/A   Clear
5:35 PM 57.2 °F - 26.6 °F 31% 29.97 in 10.0 mi Calm Calm - N/A   Clear
5:55 PM 55.4 °F - 26.6 °F 33% 29.98 in 10.0 mi Calm Calm - N/A   Clear
6:15 PM 55.4 °F - 26.6 °F 33% 29.98 in 10.0 mi Calm Calm - N/A   Clear
6:35 PM 55.4 °F - 26.6 °F 33% 29.98 in 10.0 mi Calm Calm - N/A   Clear
6:55 PM 55.4 °F - 26.6 °F 33% 29.99 in 10.0 mi Calm Calm - N/A   Clear
7:15 PM 55.4 °F - 26.6 °F 33% 29.99 in 10.0 mi Calm Calm - N/A   Clear
7:35 PM 53.6 °F - 30.2 °F 41% 29.99 in 10.0 mi Calm Calm - N/A   Clear
7:55 PM 51.8 °F - 30.2 °F 44% 29.98 in 10.0 mi Calm Calm - N/A   Clear
8:15 PM 53.6 °F - 30.2 °F 41% 29.99 in 10.0 mi Calm Calm - N/A   Clear
8:35 PM 51.8 °F - 32.0 °F 47% 30.00 in 10.0 mi Calm Calm - N/A   Clear
8:55 PM 51.8 °F - 32.0 °F 47% 30.01 in 10.0 mi Calm Calm - N/A   Clear
9:15 PM 51.8 °F - 32.0 °F 47% 30.01 in 10.0 mi Calm Calm - N/A   Clear
9:35 PM 50.0 °F - 32.0 °F 50% 30.00 in 10.0 mi Calm Calm - N/A   Clear
9:55 PM 51.8 °F - 32.0 °F 47% 30.00 in 10.0 mi Calm Calm - N/A   Clear
10:15 PM 51.8 °F - 32.0 °F 47% 30.00 in 10.0 mi Calm Calm - N/A   Mostly Cloudy
10:35 PM 51.8 °F - 32.0 °F 47% 30.00 in 10.0 mi Calm Calm - N/A   Mostly Cloudy
10:55 PM 51.8 °F - 32.0 °F 47% 29.99 in 10.0 mi Calm Calm - N/A   Overcast
11:15 PM 51.8 °F - 32.0 °F 47% 29.99 in 10.0 mi Calm Calm - N/A   Overcast
11:35 PM 50.0 °F - 33.8 °F 54% 29.99 in 10.0 mi Calm Calm - N/A   Overcast
11:55 PM 50.0 °F - 32.0 °F 50% 29.98 in 10.0 mi Calm Calm - N/A   Overcast